IU1VDW-3 Weather Reports


Display with metric or nautical units.
time (UTC)temp
F
wind
direction
speed
MPH
gust
MPH
rain 1hr
in
rain 24hr
in
rain mn
in
humidity
%
barometer
mb
20260906084917 83 0 0.0 0.0 0.00 0.00 0.00 54 1023.1
20260906080917 80 0 0.0 0.0 0.00 0.00 0.00 58 1023.1
20260906072917 78 0 0.0 0.0 0.00 0.00 0.00 62 1023.2
20260906064917 75 0 0.0 0.0 0.00 0.00 0.00 64 1023.2
20260906060917 74 0 0.0 0.0 0.00 0.00 0.00 67 1022.8
20260906052917 72 0 0.0 0.0 0.00 0.00 0.00 69 1022.3
20260906044917 72 0 0.0 0.0 0.00 0.00 0.00 69 1021.9
20260906040917 72 0 0.0 0.0 0.00 0.00 0.00 69 1021.4
20260906032917 72 0 0.0 0.0 0.00 0.00 0.00 69 1020.9
20260906024917 74 0 0.0 0.0 0.00 0.00 0.00 65 1020.6
20260906020917 75 0 0.0 0.0 0.00 0.00 0.00 63 1020.4
20260906012917 76 0 0.0 0.0 0.00 0.00 0.00 61 1020.3
20260906004918 78 0 0.0 0.0 0.00 0.00 0.00 57 1020.1
20260906000918 78 0 0.0 0.0 0.00 0.00 0.00 57 1020.0
20260905232918 78 0 0.0 0.0 0.00 0.00 0.00 57 1019.8
20260905224918 78 0 0.0 0.0 0.00 0.00 0.00 55 1019.5
20260905220918 82 0 0.0 0.0 0.00 0.00 0.00 49 1019.2
20260905212918 83 0 0.0 0.0 0.00 0.00 0.00 47 1018.7
20260905204918 85 0 0.0 0.0 0.00 0.00 0.00 45 1018.3
20260905200918 88 0 0.0 0.0 0.00 0.00 0.00 39 1017.6
20260905192918 90 0 0.0 0.0 0.00 0.00 0.00 39 1016.8
20260905184918 92 0 0.0 0.0 0.00 0.00 0.00 38 1016.4
20260905180918 94 0 0.0 0.0 0.00 0.00 0.00 35 1015.7
20260905172918 97 0 0.0 0.0 0.00 0.00 0.00 31 1015.2